EW3456 Weather Reports


time (UTC)temp
F
wind
direction
speed
knots
gust
knots
rain 1hr
in
rain 24hr
in
rain mn
in
humidity
%
barometer
mb
20260504080601 48 67 0.0 0.0 0.00 0.00 0.00 89 1016.8
20260504050602 52 67 0.0 0.0 0.00 0.00 0.00 86 1017.1
20260504045601 52 67 0.0 0.0 0.00 0.00 0.00 87 1017.2
20260504044602 52 67 0.0 0.0 0.00 0.00 0.00 87 1017.2
20260504043601 53 67 0.0 0.0 0.00 0.00 0.00 86 1017.3
20260504042601 53 67 0.0 0.0 0.00 0.00 0.00 86 1017.0
20260504041602 53 67 0.0 0.0 0.00 0.00 0.00 86 1017.0
20260504035602 54 67 0.0 0.0 0.00 0.00 0.00 85 1017.0
20260504034601 54 67 0.0 0.0 0.00 0.00 0.00 84 1017.1
20260504033602 54 67 0.0 0.0 0.00 0.00 0.00 83 1017.0
20260504032602 55 67 0.0 0.0 0.00 0.00 0.00 82 1017.0
20260504030601 55 67 0.0 0.0 0.00 0.00 0.00 82 1016.9
20260504025602 56 67 0.0 0.0 0.00 0.00 0.00 80 1016.8
20260504024602 56 67 0.0 0.0 0.00 0.00 0.00 79 1016.7
20260504023602 56 67 0.0 0.0 0.00 0.00 0.00 77 1016.8
20260504022602 57 67 0.0 0.0 0.00 0.00 0.00 78 1016.7
20260504021602 58 67 0.0 0.0 0.00 0.00 0.00 78 1016.6
20260504020602 58 67 0.0 0.0 0.00 0.00 0.00 77 1016.5
20260504014602 59 67 0.0 0.0 0.00 0.00 0.00 72 1016.3
20260504013601 60 67 0.0 0.0 0.00 0.00 0.00 72 1016.2
20260504012601 60 67 0.0 0.0 0.00 0.00 0.00 71 1016.1
20260504010601 62 67 0.0 0.0 0.00 0.00 0.00 68 1016.0
20260504005601 62 67 0.0 0.0 0.00 0.00 0.00 63 1016.0
20260504004601 63 67 0.0 0.0 0.00 0.00 0.00 61 1016.0
20260504002602 64 67 0.0 0.0 0.00 0.00 0.00 57 1015.8
20260504001601 64 67 0.0 0.0 0.00 0.00 0.00 57 1015.6
20260503235601 65 66 0.0 0.9 0.00 0.00 0.00 55 1015.6
20260503233602 66 58 0.0 0.9 0.00 0.00 0.00 54 1015.7
20260503231602 66 34 0.0 0.9 0.00 0.00 0.00 52 1015.8
20260503225602 66 77 0.0 0.0 0.00 0.00 0.00 54 1015.9
20260503224601 66 182 0.0 0.0 0.00 0.00 0.00 53 1016.0
20260503223602 66 209 0.0 2.6 0.00 0.00 0.00 52 1015.9
20260503221602 67 262 0.0 0.0 0.00 0.00 0.00 49 1016.2
20260503215602 67 299 0.0 0.0 0.00 0.00 0.00 46 1016.1
20260503214601 67 263 0.0 1.7 0.00 0.00 0.00 47 1016.1
20260503213601 67 261 0.0 0.9 0.00 0.00 0.00 44 1016.2
20260503212602 67 233 0.0 0.9 0.00 0.00 0.00 46 1016.3
20260503211602 67 271 0.0 0.9 0.00 0.00 0.00 46 1016.3
20260503205602 67 276 0.0 0.9 0.00 0.00 0.00 46 1016.4
20260503203602 67 279 0.0 1.7 0.00 0.00 0.00 45 1016.6
20260503202602 67 257 0.0 1.7 0.00 0.00 0.00 50 1016.9
20260503201601 67 196 0.0 1.7 0.00 0.00 0.00 46 1017.0
20260503195602 67 276 0.0 1.7 0.00 0.00 0.00 50 1017.3
20260503194602 67 281 0.0 0.9 0.00 0.00 0.00 45 1017.5
20260503193602 66 258 0.0 1.7 0.00 0.00 0.00 49 1017.6
20260503191601 66 246 0.0 1.7 0.00 0.00 0.00 49 1018.2
20260503190601 66 342 0.0 0.9 0.00 0.00 0.00 53 1018.3
20260503185601 66 285 0.0 1.7 0.00 0.00 0.00 51 1018.5
20260503184602 66 103 0.0 0.9 0.00 0.00 0.00 49 1018.7
20260503183602 65 309 0.0 1.7 0.00 0.00 0.00 51 1018.6
20260503182602 66 38 0.0 2.6 0.00 0.00 0.00 51 1018.8
20260503181601 66 127 0.0 3.5 0.00 0.00 0.00 49 1018.9
20260503175602 64 270 0.0 1.7 0.00 0.00 0.00 53 1019.0
20260503174601 64 338 0.0 0.9 0.00 0.00 0.00 50 1019.1
20260503173602 64 315 0.0 0.9 0.00 0.00 0.00 55 1019.1
20260503172601 64 276 0.0 0.9 0.00 0.00 0.00 47 1019.2
20260503171601 62 99 0.0 1.7 0.00 0.00 0.00 56 1019.5
20260503170602 61 163 0.0 0.0 0.00 0.00 0.00 56 1019.6
20260503150602 59 118 0.0 1.7 0.00 0.00 0.00 62 1020.6
20260503130602 47 255 0.0 0.0 0.00 0.00 0.00 94 1020.1
20260503110602 43 264 0.0 0.0 0.00 0.00 0.00 92 1019.2
20260503081601 46 264 0.0 0.0 0.00 0.00 0.00 91 1017.2